FW4443 Weather Reports


Display with metric or nautical units.
time (UTC)temp
F
wind
direction
speed
MPH
gust
MPH
rain 1hr
in
rain 24hr
in
rain mn
in
humidity
%
barometer
mb
20260502223012 86 209 3.0 10.0 0.00 0.00 0.00 5 1013.1
20260502222648 86 139 2.0 10.0 0.00 0.00 0.00 8 1013.1
20260502222327 86 239 2.0 10.0 0.00 0.00 0.00 6 1013.2
20260502221701 87 55 5.0 10.0 0.00 0.00 0.00 6 1013.3
20260502221344 87 128 4.0 10.0 0.00 0.00 0.00 8 1013.5
20260502220728 86 85 2.0 10.0 0.00 0.00 0.00 10 1013.6
20260502220412 86 89 3.0 10.0 0.00 0.00 0.00 7 1013.7
20260502220053 86 323 4.0 10.0 0.00 0.00 0.00 9 1013.9
20260502215436 86 153 4.0 10.0 0.00 0.00 0.00 9 1013.9
20260502215112 86 194 4.0 10.0 0.00 0.00 0.00 10 1013.9
20260502214749 86 103 5.0 10.0 0.00 0.00 0.00 9 1014.1
20260502214430 87 92 4.0 10.0 0.00 0.00 0.00 10 1014.2
20260502213810 86 86 5.0 15.0 0.00 0.00 0.00 8 1014.2
20260502213448 86 161 6.0 15.0 0.00 0.00 0.00 10 1014.2
20260502213128 87 202 8.0 15.0 0.00 0.00 0.00 8 1014.3
20260502212807 87 63 7.0 15.0 0.00 0.00 0.00 8 1014.3
20260502211544 86 94 3.0 9.0 0.00 0.00 0.00 7 1014.5
20260502205716 87 152 5.0 10.0 0.00 0.00 0.00 8 1014.9
20260502205350 87 61 4.0 10.0 0.00 0.00 0.00 12 1015.0
20260502205032 87 56 3.0 10.0 0.00 0.00 0.00 13 1015.0
20260502204709 85 103 1.0 13.0 0.00 0.00 0.00 10 1015.0
20260502204348 85 120 3.0 13.0 0.00 0.00 0.00 11 1015.0
20260502204028 85 164 4.0 13.0 0.00 0.00 0.00 10 1014.9
20260502203713 86 175 7.0 13.0 0.00 0.00 0.00 9 1015.0
20260502203352 86 148 7.0 13.0 0.00 0.00 0.00 9 1015.0
20260502203035 86 132 5.0 13.0 0.00 0.00 0.00 12 1015.0
20260502202711 86 118 4.0 10.0 0.00 0.00 0.00 11 1015.2
20260502202345 85 120 3.0 16.0 0.00 0.00 0.00 13 1015.2
20260502202029 85 90 3.0 16.0 0.00 0.00 0.00 11 1015.3
20260502201407 84 106 5.0 16.0 0.00 0.00 0.00 9 1015.5
20260502200748 85 125 5.0 16.0 0.00 0.00 0.00 10 1015.6
20260502200421 85 142 3.0 13.0 0.00 0.00 0.00 13 1015.7
20260502200100 84 5 2.0 10.0 0.00 0.00 0.00 10 1015.7
20260502195740 85 138 1.0 8.0 0.00 0.00 0.00 13 1015.8
20260502195426 84 226 1.0 4.0 0.00 0.00 0.00 12 1015.9
20260502195111 84 219 1.0 11.0 0.00 0.00 0.00 10 1015.9
20260502194751 85 188 2.0 11.0 0.00 0.00 0.00 11 1016.0
20260502194125 84 82 6.0 11.0 0.00 0.00 0.00 10 1016.1
20260502193810 85 128 6.0 11.0 0.00 0.00 0.00 10 1016.2
20260502193446 85 119 5.0 11.0 0.00 0.00 0.00 10 1016.2
20260502193126 83 136 3.0 11.0 0.00 0.00 0.00 11 1016.2
20260502192802 83 157 2.0 10.0 0.00 0.00 0.00 10 1016.3
20260502192445 82 232 2.0 12.0 0.00 0.00 0.00 10 1016.3
20260502191820 84 134 6.0 12.0 0.00 0.00 0.00 9 1016.4
20260502191502 84 107 6.0 12.0 0.00 0.00 0.00 12 1016.6
20260502191137 84 138 6.0 12.0 0.00 0.00 0.00 10 1016.6
20260502190817 84 157 4.0 12.0 0.00 0.00 0.00 11 1016.7
20260502190457 83 83 4.0 9.0 0.00 0.00 0.00 12 1016.7
20260502190135 82 194 4.0 9.0 0.00 0.00 0.00 11 1016.7
20260502185819 83 184 4.0 9.0 0.00 0.00 0.00 11 1016.9
20260502185501 83 188 4.0 9.0 0.00 0.00 0.00 11 1016.8
20260502184843 83 144 2.0 11.0 0.00 0.00 0.00 11 1017.0
20260502184517 82 133 3.0 11.0 0.00 0.00 0.00 15 1017.1
20260502184158 82 272 3.0 11.0 0.00 0.00 0.00 11 1017.1
20260502183840 83 53 4.0 11.0 0.00 0.00 0.00 13 1017.2
20260502183517 83 108 2.0 11.0 0.00 0.00 0.00 13 1017.2
20260502183151 84 94 2.0 8.0 0.00 0.00 0.00 14 1017.3
20260502182830 84 5 3.0 8.0 0.00 0.00 0.00 13 1017.3
20260502182510 84 323 3.0 8.0 0.00 0.00 0.00 12 1017.3
20260502182155 83 42 2.0 10.0 0.00 0.00 0.00 13 1017.4
20260502181836 82 59 2.0 10.0 0.00 0.00 0.00 12 1017.4
20260502181516 82 157 3.0 10.0 0.00 0.00 0.00 12 1017.5
20260502181202 82 118 4.0 10.0 0.00 0.00 0.00 15 1017.5
20260502180841 82 140 4.0 10.0 0.00 0.00 0.00 14 1017.6
20260502180522 82 128 3.0 10.0 0.00 0.00 0.00 13 1017.5
20260502180158 81 129 1.0 7.0 0.00 0.00 0.00 12 1017.5
20260502170225 79 33 3.0 9.0 0.00 0.00 0.00 16 1017.8
20260502164315 79 65 3.0 7.0 0.00 0.00 0.00 16 1018.1
20260502163949 78 59 2.0 6.0 0.00 0.00 0.00 16 1018.1
20260502163629 78 49 2.0 10.0 0.00 0.00 0.00 16 1018.1
20260502163309 78 34 2.0 10.0 0.00 0.00 0.00 15 1017.9
20260502162951 78 121 2.0 10.0 0.00 0.00 0.00 15 1018.0
20260502162625 77 23 2.0 10.0 0.00 0.00 0.00 16 1018.0
20260502162308 77 14 3.0 10.0 0.00 0.00 0.00 16 1018.0
20260502161943 77 108 2.0 10.0 0.00 0.00 0.00 19 1018.0
20260502161619 77 35 2.0 7.0 0.00 0.00 0.00 15 1018.1
20260502161254 76 26 2.0 5.0 0.00 0.00 0.00 15 1018.0
20260502160636 76 91 1.0 6.0 0.00 0.00 0.00 15 1018.1
20260502160321 75 148 1.0 6.0 0.00 0.00 0.00 16 1018.0
20260502152333 71 200 2.0 5.0 0.00 0.00 0.00 18 1017.8
20260502152011 71 166 2.0 5.0 0.00 0.00 0.00 20 1017.8
20260502151656 70 146 2.0 5.0 0.00 0.00 0.00 19 1017.7
20260502151341 70 154 2.0 5.0 0.00 0.00 0.00 19 1017.8
20260502151025 69 152 2.0 4.0 0.00 0.00 0.00 23 1017.6
20260502150709 68 155 2.0 4.0 0.00 0.00 0.00 21 1017.6
20260502150344 66 148 1.0 4.0 0.00 0.00 0.00 21 1017.7
20260502140129 58 0 0.0 0.0 0.00 0.00 0.00 32 1017.2
20260502130502 56 0 2.0 5.0 0.00 0.00 0.00 28 1016.7
20260502130144 57 252 2.0 5.0 0.00 0.00 0.00 27 1016.7
20260502123627 57 0 2.0 3.0 0.00 0.00 0.00 28 1016.5
20260502123309 57 0 2.0 3.0 0.00 0.00 0.00 27 1016.4
20260502122955 57 0 2.0 3.0 0.00 0.00 0.00 27 1016.4
20260502122338 58 0 2.0 3.0 0.00 0.00 0.00 27 1016.3
20260502122018 58 0 1.0 3.0 0.00 0.00 0.00 27 1016.2
20260502121704 58 0 1.0 3.0 0.00 0.00 0.00 28 1016.2
20260502121345 58 0 1.0 2.0 0.00 0.00 0.00 27 1016.3
20260502121020 58 0 1.0 2.0 0.00 0.00 0.00 26 1016.2
20260502120403 58 0 1.0 3.0 0.00 0.00 0.00 26 1016.2
20260502115726 58 0 1.0 3.0 0.00 0.00 0.00 26 1016.2
20260502115402 58 0 2.0 4.0 0.00 0.00 0.00 26 1016.2
20260502115041 58 0 2.0 4.0 0.00 0.00 0.00 26 1016.1
20260502114723 59 0 2.0 4.0 0.00 0.00 0.00 28 1016.1
20260502114407 59 0 3.0 4.0 0.00 0.00 0.00 27 1016.2
20260502114042 59 0 3.0 4.0 0.00 0.00 0.00 28 1016.1
20260502113718 59 0 2.0 4.0 0.00 0.00 0.00 30 1016.2
20260502113404 59 0 2.0 3.0 0.00 0.00 0.00 26 1016.2
20260502113050 59 0 2.0 3.0 0.00 0.00 0.00 26 1016.2
20260502112732 59 0 2.0 3.0 0.00 0.00 0.00 33 1016.2
20260502112413 59 0 2.0 3.0 0.00 0.00 0.00 36 1016.2
20260502112055 59 0 1.0 3.0 0.00 0.00 0.00 32 1016.2
20260502111737 59 0 1.0 3.0 0.00 0.00 0.00 24 1016.2
20260502111415 59 0 0.0 3.0 0.00 0.00 0.00 24 1016.2
20260502110756 59 0 0.0 0.0 0.00 0.00 0.00 24 1016.3
20260502110138 59 0 0.0 0.0 0.00 0.00 0.00 24 1016.3
20260502105821 59 0 0.0 0.0 0.00 0.00 0.00 24 1016.3
20260502105500 60 0 0.0 0.0 0.00 0.00 0.00 24 1016.2
20260502104842 60 0 0.0 0.0 0.00 0.00 0.00 23 1016.1
20260502104517 60 0 0.0 0.0 0.00 0.00 0.00 24 1016.1
20260502104158 60 0 0.0 0.0 0.00 0.00 0.00 23 1016.0
20260502103839 60 0 0.0 0.0 0.00 0.00 0.00 23 1016.0
20260502103524 61 0 0.0 0.0 0.00 0.00 0.00 23 1016.0
20260502103200 61 0 0.0 0.0 0.00 0.00 0.00 23 1016.1
20260502102843 61 0 0.0 0.0 0.00 0.00 0.00 22 1016.0
20260502102220 62 0 1.0 3.0 0.00 0.00 0.00 21 1016.1
20260502101859 62 0 1.0 2.0 0.00 0.00 0.00 21 1016.0
20260502101536 62 0 1.0 2.0 0.00 0.00 0.00 21 1016.0
20260502101211 63 0 1.0 2.0 0.00 0.00 0.00 21 1016.1
20260502100851 63 0 1.0 3.0 0.00 0.00 0.00 20 1016.1
20260502100536 63 0 1.0 3.0 0.00 0.00 0.00 20 1016.0
20260502100212 63 0 1.0 3.0 0.00 0.00 0.00 20 1016.1
20260502091244 67 0 1.0 7.0 0.00 0.00 0.00 16 1016.1
20260502090918 67 0 1.0 7.0 0.00 0.00 0.00 16 1016.2
20260502090553 67 0 1.0 7.0 0.00 0.00 0.00 16 1016.1
20260502090232 67 0 2.0 7.0 0.00 0.00 0.00 15 1016.2
20260502071422 67 0 1.0 7.0 0.00 0.00 0.00 14 1016.3
20260502071103 68 0 1.0 4.0 0.00 0.00 0.00 15 1016.3
20260502070741 68 0 0.0 4.0 0.00 0.00 0.00 15 1016.3
20260502070423 68 0 1.0 4.0 0.00 0.00 0.00 15 1016.2
20260502070100 68 0 1.0 4.0 0.00 0.00 0.00 15 1016.2
20260502065737 69 0 1.0 4.0 0.00 0.00 0.00 15 1016.1
20260502065117 69 0 1.0 4.0 0.00 0.00 0.00 14 1016.1
20260502064755 69 0 2.0 4.0 0.00 0.00 0.00 14 1016.1
20260502064437 69 0 1.0 4.0 0.00 0.00 0.00 14 1016.0
20260502064122 70 0 1.0 4.0 0.00 0.00 0.00 14 1016.0
20260502063801 70 0 1.0 3.0 0.00 0.00 0.00 14 1015.9
20260502063441 70 0 1.0 3.0 0.00 0.00 0.00 13 1015.9
20260502063126 70 0 1.0 3.0 0.00 0.00 0.00 13 1015.9
20260502062800 70 0 1.0 3.0 0.00 0.00 0.00 14 1015.9
20260502062438 70 0 0.0 5.0 0.00 0.00 0.00 13 1015.9
20260502062115 70 0 1.0 5.0 0.00 0.00 0.00 13 1015.8
20260502061759 70 0 1.0 5.0 0.00 0.00 0.00 13 1015.8
20260502061136 70 0 2.0 5.0 0.00 0.00 0.00 14 1015.8
20260502060817 71 0 1.0 5.0 0.00 0.00 0.00 13 1015.7
20260502060455 71 0 1.0 4.0 0.00 0.00 0.00 14 1015.6
20260502055839 71 0 2.0 4.0 0.00 0.00 0.00 13 1015.6
20260502055516 71 0 1.0 4.0 0.00 0.00 0.00 13 1015.5
20260502055156 72 0 1.0 5.0 0.00 0.00 0.00 13 1015.5
20260502054834 72 0 1.0 5.0 0.00 0.00 0.00 13 1015.5
20260502053911 72 0 2.0 5.0 0.00 0.00 0.00 13 1015.4
20260502053550 72 0 2.0 5.0 0.00 0.00 0.00 13 1015.4
20260502053228 72 0 2.0 5.0 0.00 0.00 0.00 13 1015.4
20260502052907 72 0 2.0 7.0 0.00 0.00 0.00 13 1015.4
20260502052548 72 0 2.0 7.0 0.00 0.00 0.00 13 1015.3
20260502052223 72 0 2.0 13.0 0.00 0.00 0.00 13 1015.4
20260502051858 72 0 3.0 13.0 0.00 0.00 0.00 13 1015.3
20260502051540 72 0 3.0 13.0 0.00 0.00 0.00 13 1015.2
20260502051218 72 0 5.0 13.0 0.00 0.00 0.00 13 1015.3
20260502050856 71 0 4.0 13.0 0.00 0.00 0.00 13 1015.2
20260502050534 71 0 4.0 13.0 0.00 0.00 0.00 13 1015.2
20260502050217 71 0 2.0 9.0 0.00 0.00 0.00 14 1015.2
20260502045857 71 0 2.0 7.0 0.00 0.00 0.00 14 1015.0
20260502045533 71 0 2.0 7.0 0.00 0.00 0.00 15 1015.0
20260502045209 71 0 2.0 7.0 0.00 0.00 0.00 16 1014.9
20260502044549 72 0 2.0 5.0 0.00 0.00 0.00 16 1014.9
20260502044231 72 0 2.0 5.0 0.00 0.00 0.00 15 1014.8
20260502043912 72 0 3.0 5.0 0.00 0.00 0.00 15 1014.7
20260502043551 72 0 3.0 5.0 0.00 0.00 0.00 15 1014.7
20260502043233 73 0 2.0 5.0 0.00 0.00 0.00 14 1014.7
20260502042912 73 0 1.0 5.0 0.00 0.00 0.00 14 1014.7
20260502042557 73 0 1.0 3.0 0.00 0.00 0.00 13 1014.5
20260502042236 73 0 0.0 3.0 0.00 0.00 0.00 14 1014.4
20260502041918 73 0 0.0 3.0 0.00 0.00 0.00 13 1014.3
20260502041555 74 0 0.0 3.0 0.00 0.00 0.00 13 1014.3
20260502041238 74 0 0.0 1.0 0.00 0.00 0.00 13 1014.2
20260502040923 74 0 1.0 5.0 0.00 0.00 0.00 12 1014.2
20260502040605 74 0 2.0 5.0 0.00 0.00 0.00 12 1014.2
20260502040245 74 0 1.0 5.0 0.00 0.00 0.00 12 1014.2
20260502035921 75 0 1.0 5.0 0.00 0.00 0.00 12 1014.1
20260502035604 75 0 1.0 3.0 0.00 0.00 0.00 12 1014.1
20260502035238 75 0 1.0 5.0 0.00 0.00 0.00 12 1014.0
20260502034915 75 0 1.0 5.0 0.00 0.00 0.00 12 1013.9
20260502034551 76 0 2.0 5.0 0.00 0.00 0.00 12 1013.9
20260502034229 76 0 2.0 7.0 0.00 0.00 0.00 12 1013.8
20260502033904 76 0 2.0 7.0 0.00 0.00 0.00 11 1013.8
20260502033539 76 0 2.0 7.0 0.00 0.00 0.00 11 1013.7
20260502033223 77 0 2.0 7.0 0.00 0.00 0.00 11 1013.7
20260502032909 77 0 2.0 7.0 0.00 0.00 0.00 11 1013.6
20260502032554 77 0 2.0 7.0 0.00 0.00 0.00 11 1013.6
20260502032233 77 0 2.0 8.0 0.00 0.00 0.00 11 1013.6
20260502031919 77 0 2.0 8.0 0.00 0.00 0.00 11 1013.5
20260502031557 77 0 2.0 8.0 0.00 0.00 0.00 11 1013.4
20260502031239 77 0 3.0 13.0 0.00 0.00 0.00 11 1013.3
20260502030915 77 0 3.0 13.0 0.00 0.00 0.00 11 1013.2
20260502030600 77 0 4.0 13.0 0.00 0.00 0.00 11 1013.2
20260502030235 77 0 5.0 13.0 0.00 0.00 0.00 11 1013.1
20260502025920 77 0 6.0 13.0 0.00 0.00 0.00 11 1013.0
20260502025306 78 0 5.0 11.0 0.00 0.00 0.00 11 1012.9
20260502024943 78 0 5.0 10.0 0.00 0.00 0.00 11 1012.9
20260502024624 78 0 5.0 10.0 0.00 0.00 0.00 11 1012.9
20260502024308 78 0 4.0 10.0 0.00 0.00 0.00 11 1013.0
20260502023950 78 0 3.0 9.0 0.00 0.00 0.00 11 1012.8
20260502023335 78 0 3.0 8.0 0.00 0.00 0.00 11 1012.7
20260502023011 78 0 4.0 10.0 0.00 0.00 0.00 11 1012.7
20260502022650 78 0 4.0 10.0 0.00 0.00 0.00 11 1012.7
20260502022326 78 0 4.0 10.0 0.00 0.00 0.00 11 1012.7
20260502022003 78 0 5.0 10.0 0.00 0.00 0.00 11 1012.6
20260502021641 79 0 4.0 10.0 0.00 0.00 0.00 11 1012.6
20260502021023 79 0 3.0 8.0 0.00 0.00 0.00 11 1012.5
20260502020708 79 0 3.0 8.0 0.00 0.00 0.00 11 1012.7
20260502020350 79 101 2.0 8.0 0.00 0.00 0.00 11 1012.6
20260502020029 79 61 2.0 8.0 0.00 0.00 0.00 13 1012.6
20260502015711 79 39 2.0 8.0 0.00 0.00 0.00 12 1012.5
20260502015356 79 345 2.0 8.0 0.00 0.00 0.00 12 1012.5
20260502014432 80 0 2.0 6.0 0.00 0.00 0.00 12 1012.4
20260502014115 80 71 2.0 6.0 0.00 0.00 0.00 11 1012.4
20260502013801 80 52 2.0 6.0 0.00 0.00 0.00 12 1012.3
20260502013445 80 65 2.0 6.0 0.00 0.00 0.00 12 1012.3
20260502013126 80 80 1.0 4.0 0.00 0.00 0.00 12 1012.4
20260502012801 81 44 1.0 4.0 0.00 0.00 0.00 12 1012.4
20260502012437 81 21 2.0 9.0 0.00 0.00 0.00 12 1012.3
20260502012112 81 78 2.0 9.0 0.00 0.00 0.00 12 1012.4
20260502011749 81 114 3.0 9.0 0.00 0.00 0.00 12 1012.3
20260502011423 81 105 3.0 9.0 0.00 0.00 0.00 12 1012.3
20260502011108 81 101 4.0 9.0 0.00 0.00 0.00 12 1012.3
20260502010753 82 55 4.0 9.0 0.00 0.00 0.00 12 1012.3
20260502010429 82 110 4.0 13.0 0.00 0.00 0.00 12 1012.3
20260502010113 82 79 4.0 13.0 0.00 0.00 0.00 12 1012.2
20260502005748 82 62 4.0 13.0 0.00 0.00 0.00 12 1012.3
20260502005424 82 66 4.0 13.0 0.00 0.00 0.00 12 1012.2
20260502004809 82 130 3.0 13.0 0.00 0.00 0.00 11 1012.2
20260502004452 82 26 3.0 10.0 0.00 0.00 0.00 11 1012.2
20260502004128 83 22 3.0 10.0 0.00 0.00 0.00 11 1012.3
20260502003502 83 40 2.0 8.0 0.00 0.00 0.00 12 1012.2
20260502003143 83 34 2.0 15.0 0.00 0.00 0.00 12 1012.2
20260502002819 83 350 3.0 15.0 0.00 0.00 0.00 11 1012.2
20260502002459 83 232 5.0 15.0 0.00 0.00 0.00 11 1012.3
20260502001838 83 109 6.0 15.0 0.00 0.00 0.00 12 1012.4
20260502001516 83 51 6.0 15.0 0.00 0.00 0.00 13 1012.3
20260502001151 83 90 6.0 11.0 0.00 0.00 0.00 11 1012.3
20260502000833 83 133 6.0 10.0 0.00 0.00 0.00 12 1012.4
20260502000512 84 144 6.0 10.0 0.00 0.00 0.00 12 1012.4
20260501235851 84 111 5.0 12.0 0.00 0.00 0.00 12 1012.4
20260501235532 85 118 5.0 12.0 0.00 0.00 0.00 11 1012.4
20260501235211 85 103 4.0 12.0 0.00 0.00 0.00 11 1012.4
20260501234251 85 81 5.0 12.0 0.00 0.00 0.00 11 1012.4
20260501233928 85 28 5.0 11.0 0.00 0.00 0.00 11 1012.4
20260501233607 85 21 6.0 11.0 0.00 0.00 0.00 11 1012.4
20260501233250 85 33 5.0 11.0 0.00 0.00 0.00 11 1012.5
20260501232930 85 98 4.0 11.0 0.00 0.00 0.00 12 1012.4
20260501232612 86 115 4.0 16.0 0.00 0.00 0.00 11 1012.4
20260501231651 85 23 7.0 16.0 0.00 0.00 0.00 11 1012.4
20260501230735 85 171 6.0 15.0 0.00 0.00 0.00 11 1012.4
20260501230417 85 123 7.0 15.0 0.00 0.00 0.00 12 1012.4
20260501230057 85 105 6.0 15.0 0.00 0.00 0.00 14 1012.5
20260501225742 85 88 7.0 15.0 0.00 0.00 0.00 12 1012.6
20260501225116 85 63 6.0 14.0 0.00 0.00 0.00 13 1012.6
20260501224753 84 87 4.0 17.0 0.00 0.00 0.00 14 1012.5
20260501224436 85 65 4.0 17.0 0.00 0.00 0.00 12 1012.6
20260501224112 84 105 6.0 17.0 0.00 0.00 0.00 15 1012.7